Other Public Products
Issued by NWS Charleston, SC

Current Version | Previous Version | Graphics & Text | Print | Product List | Glossary On
Versions: 1 2 3 4 5 6 7 8 9 10 11 12 13 14 15 16 17 18 19 20 21 22 23 24 25 26 27 28 29 30 31 32 33 34 35 36 37 38 39 40 41 42 43 44 45 46 47 48 49 50
143
FPUS82 KCHS 111012
OPUCHS

TEST...KCHS/KSAV Gateway Observations...TEST
National Weather Service Charleston SC
500 AM EST MON DEC 11 2017

NOTE: "fair" indicates few or no clouds below 12,000 feet with no
significant weather and/or obstructions to visibility.

SCZ050-WAZ558-NCZ071-TXZ119-213-PAZ071-DCZ001-FLZ074-172-MI076-
NYZ176-178-MAZ016-IL014-TNZ027-NJZ106-GAZ044-MD014-111100-

...Gateway Observations for Charleston International...

CITY           SKY/WX    TMP DP  RH WIND       PRES   REMARKS
Chas Airport   CLEAR     34  28  79 W5        30.20F WCI  30
Seattle        CLEAR     34  30  85 NE7       30.32R WCI  28
Charlotte      CLEAR     29  24  82 CALM      30.12S
Dallas DFW     CLEAR     42  24  49 CALM      30.25S
Dallas Love    CLEAR     40  29  64 CALM      30.27S
Philladelphia  CLOUDY    34  28  79 S9        30.03S WCI  27
Wash National  PTCLDY    36  27  69 CALM      30.06R
Baltimore      CLOUDY    35  26  69 CALM      30.03S
Miami          CLEAR     53  40  61 NW7       30.24S
Detroit        CLOUDY    26  17  68 N8        30.05R WCI  18
Newark         CLOUDY    34  23  64 SW13      30.01R WCI  25
Laguardia      CLOUDY    36  22  56 W12       30.00R WCI  28
J F K          CLOUDY    34  26  72 W24G32    30.02R WCI  21
Boston Logan   CLOUDY    32  24  72 SW10      29.94R WCI  24
Ft. Lauderdale CLEAR     49  41  74 NW8       30.24R
Chicago O`Hare MOCLDY    26  19  74 S3        29.99F
Chicago Midway MOCLDY    27  20  75 S7        30.01F WCI  19
Houston Bush   CLEAR     42  37  82 W5        30.32F
Houston Hobby  CLEAR     39  37  92 W5        30.33S WCI  36
Nashville      CLEAR     33  25  72 S5        30.15F WCI  29
Atlanta        CLEAR     34  28  79 W5        30.18F WCI  30

$$

GAZ044-118-TXZ119-213-NCZ071-DCZ001-MDZ014-506-PAZ021-071-NJZ106-
NYZ176-178-MAZ106-OHZ011-021-055-MIZ076-KYZ091-ILZ014-INZ047-
MNZ060-ONZ431-111100-

...Gateway Observations for Savannah International...

CITY           SKY/WX    TMP DP  RH WIND       PRES   REMARKS
Savannah Arpt  CLEAR     32  28  85 SW5       30.24F WCI  27
Atlanta        CLEAR     34  28  79 W5        30.18F WCI  30
Charlotte      CLEAR     29  24  82 CALM      30.12S
Dallas DFW     CLEAR     42  24  49 CALM      30.25S
Houston Bush   CLEAR     42  37  82 W5        30.32F
Wash National  PTCLDY    36  27  69 CALM      30.06R
Wash Dulles    CLOUDY    31  27  85 CALM      30.04R
Baltimore      CLOUDY    35  26  69 CALM      30.03S
Philadelphia   CLOUDY    34  28  79 S9        30.03S WCI  27
Newark         CLOUDY    34  23  64 SW13      30.01R WCI  25
Laguardia      CLOUDY    36  22  56 W12       30.00R WCI  28
J F K          CLOUDY    34  26  72 W24G32    30.02R WCI  21
Boston         CLOUDY    32  24  72 SW10      29.94R WCI  24
Pittsburg      CLOUDY    33  20  58 W9        29.99R WCI  25
Akron          CLOUDY    29  20  69 NW10      30.01R WCI  20
Cleveland      FLURRIES  30  20  66 W6        30.03S WCI  24
Cincinnati     CLEAR     23  20  88 W3        30.09R
Columbus       CLOUDY    30  23  74 W6        30.07R WCI  24
Detroit        CLOUDY    26  17  68 N8        30.05R WCI  18
Chicago O`Hare MOCLDY    26  19  74 S3        29.99F
Minneapolis    CLOUDY    27  25  92 SE6       29.80F WCI  20
Indianapolis   CLEAR     22  18  85 S6        30.08S WCI  14
Toronto Canada FLURRIES  19  12  73 N6        29.97R WCI  11

$$




USA.gov is the U.S. government's official web portal to all federal, state and local government web resources and services.